Location: Meanaryar
(48.4161°N, 4.7315°W)
Time: 10:46:45
(UTC+00:00)

SPOT 5 - Pass Details

Date: 18 September 2020
Orbit: 623 x 814 km, 98.3° (Epoch: 24 October)

Event Time Altitude Azimuth Distance (km) Brightness Sun altitude
Exits shadow 20:40:09 23° 55° (NE) 1,643 4.5 -22.3°
Drops below altitude 10° 20:43:57 10° 9° (N) 2,391 5.8 -22.8°
Sets 20:46:45 0° 356° (N) 3,342 6.8 -23.2°
